Flag for U.S.A. Weather past 2 weeks in Sandpoint, Idaho, U.S.A.

Now
72 °F

Sunny.


Feels Like: 77 °F
Forecast: 45 / 89 °F
Wind: 6 mph from Northeast

Location: Sandpoint Airport

Current Time: Jul 30, 2015 at 9:35:57 AM

Latest Report: Jul 30, 2015 at 9:15 AM


Visibility: 10 mi

Pressure: 30.22 "Hg (28.07 "Hg at 636m altitude)

Humidity: 38%

Dew point: 45 °F

Location of SandpointLocation

Historic Weather in Sandpoint — Graph

°F

Sandpoint temperature yesterday

Maximum temperature yesterday: 86 °F (at 2:35 PM)
Minimum temperature yesterday: 45 °F (at 4:55 AM)
Average temperature yesterday: 67 °F

Past Weeks' High & Low Weather Summary

 TemperatureHumidityPressure
High91 °F (Jul 19, 4:55 PM)100% (Jul 26, 2:55 AM)30.24 "Hg (Jul 26, 2:55 AM)
Low41 °F (Jul 28, 5:15 AM)13% (Jul 21, 4:55 PM)29.71 "Hg (Jul 21, 7:55 PM)
Average66 °F50%29.96 "Hg
* Reported Jul 15 8:15 AM — Jul 30 8:35 AM, Sandpoint, Weather by CustomWeather, © 2015

Note: Actual official high and low records may vary slightly from our data, if they occured in-between our weather recording intervals... More about our weather records

Advertising

Sandpoint weather history for previous 24 hours

 ConditionsComfort  
Time TempWeatherWind HumidityBarometerVisibility
8:35 AM
Thu, Jul 30
68 °FSunny.5 mph43%30.23 "Hg10 mi
8:15 AM64 °FSunny.No wind49%30.23 "Hg10 mi
7:55 AM61 °FSunny.No wind55%30.23 "Hg10 mi
7:35 AM59 °FSunny.No wind55%30.23 "Hg10 mi
7:15 AM55 °FSunny.No wind63%30.22 "Hg10 mi
6:55 AM54 °FSunny.No wind67%30.22 "Hg10 mi
6:35 AM50 °FSunny.No wind76%30.22 "Hg10 mi
6:15 AM46 °FClear.No wind82%30.21 "Hg10 mi
5:55 AM46 °FClear.No wind82%30.21 "Hg10 mi
5:35 AM45 °FClear.No wind87%30.20 "Hg10 mi
5:15 AM45 °FClear.No wind87%30.20 "Hg10 mi
4:55 AM46 °FClear.No wind82%30.19 "Hg10 mi
4:35 AM46 °FClear.No wind82%30.19 "Hg10 mi
4:15 AM46 °FClear.No wind82%30.18 "Hg10 mi
3:55 AM48 °FClear.No wind76%30.18 "Hg10 mi
3:35 AM50 °FClear.No wind71%30.18 "Hg10 mi
3:15 AM48 °FClear.No wind76%30.18 "Hg10 mi
2:55 AM48 °FClear.No wind76%30.17 "Hg10 mi
2:35 AM50 °FClear.No wind71%30.17 "Hg10 mi
2:15 AM52 °FClear.No wind67%30.16 "Hg10 mi
1:55 AM50 °FClear.No wind71%30.16 "Hg10 mi
1:35 AM52 °FClear.No wind67%30.16 "Hg10 mi
1:15 AM52 °FClear.3 mph67%30.16 "Hg10 mi
12:55 AM52 °FClear.No wind72%30.15 "Hg10 mi
12:35 AM54 °FClear.No wind63%30.15 "Hg10 mi
12:15 AM54 °FClear.No wind63%30.15 "Hg10 mi
11:55 PM
Wed, Jul 29
54 °FClear.No wind67%30.14 "Hg10 mi
11:35 PM55 °FClear.5 mph63%30.14 "Hg10 mi
11:15 PM57 °FClear.No wind59%30.14 "Hg10 mi
10:55 PM57 °FClear.No wind59%30.13 "Hg10 mi
10:35 PM59 °FClear.No wind55%30.13 "Hg10 mi
10:15 PM59 °FClear.No wind55%30.13 "Hg10 mi
9:55 PM61 °FClear.No wind52%30.13 "Hg10 mi
9:15 PM63 °FSunny.No wind49%30.11 "Hg10 mi
8:55 PM64 °FSunny.No wind46%30.11 "Hg10 mi
8:35 PM68 °FSunny.No wind40%30.11 "Hg10 mi
8:15 PM70 °FSunny.No wind35%30.10 "Hg10 mi
7:55 PM72 °FSunny.No wind36%30.10 "Hg10 mi
7:35 PM82 °FSunny.3 mph17%30.10 "Hg10 mi
7:15 PM82 °FSunny.5 mph17%30.10 "Hg10 mi
6:55 PM84 °FSunny.3 mph15%30.10 "Hg10 mi
6:35 PM84 °FSunny.5 mph15%30.10 "Hg10 mi
6:15 PM86 °FSunny.6 mph14%30.11 "Hg10 mi
5:55 PM86 °FSunny.8 mph14%30.11 "Hg10 mi
5:35 PM84 °FSunny.7 mph15%30.11 "Hg10 mi
5:15 PM82 °FScattered clouds.No wind19%30.11 "Hg10 mi
4:55 PM86 °FScattered clouds.8 mph15%30.12 "Hg10 mi
4:35 PM86 °FScattered clouds.12 mph15%30.12 "Hg10 mi
4:15 PM86 °FSunny.9 mph17%30.13 "Hg10 mi
3:55 PM86 °FSunny.7 mph15%30.14 "Hg10 mi
3:35 PM86 °FSunny.9 mph17%30.14 "Hg10 mi
2:55 PM84 °FSunny.7 mph16%30.15 "Hg10 mi
2:35 PM86 °FSunny.7 mph15%30.16 "Hg10 mi
2:15 PM82 °FSunny.7 mph17%30.16 "Hg10 mi
1:55 PM82 °FSunny.13 mph19%30.17 "Hg10 mi
1:35 PM82 °FSunny.9 mph20%30.17 "Hg10 mi
1:15 PM82 °FSunny.10 mph20%30.17 "Hg10 mi
12:55 PM81 °FSunny.9 mph24%30.18 "Hg10 mi
12:35 PM81 °FSunny.10 mph24%30.18 "Hg10 mi
12:15 PM79 °FSunny.10 mph26%30.19 "Hg10 mi
11:55 AM77 °FSunny.12 mph32%30.20 "Hg10 mi
11:35 AM75 °FSunny.10 mph41%30.20 "Hg10 mi
11:15 AM77 °FSunny.8 mph34%30.21 "Hg10 mi
10:55 AM73 °FSunny.12 mph38%30.21 "Hg10 mi
10:35 AM73 °FSunny.7 mph38%30.22 "Hg10 mi
10:15 AM70 °FSunny.6 mph43%30.22 "Hg10 mi
9:55 AM70 °FSunny.7 mph46%30.22 "Hg10 mi
9:35 AM66 °FSunny.No wind52%30.23 "Hg10 mi
9:15 AM64 °FSunny.No wind60%30.23 "Hg10 mi
Weather by CustomWeather, © 2015

See weather overviewHow to use our weather pages